軌道要素
Epoch 2003 Aug. 29.0 TT = JDT 2452880.5
T 2003 Aug. 14.06411 TT MPC
q 1.2463796 (2000.0) P Q
n 0.18017508 Peri. 0.76326 +0.95242604 +0.30125448
a 3.1046041 Node 341.50088 -0.28038599 +0.80676147
e 0.5985383 Incl. 8.36446 -0.11945012 +0.50831257
P 5.47
From 253 observations 2003 July 30-2014 July 11, mean residual 0".6.
|